Escatawpa, MS

4:37 AM CST on February 23, 2017 (GMT -0600)
Lott International

Weather History for KPQL - August, 2014

Change the Weather History Date:

Friday, August 22, 2014

  Actual Average Record
Temperature  
Mean Temperature 83 °F -  
Max Temperature 96 °F 90 °F 99 °F (1968)
Min Temperature 73 °F 73 °F 58 °F (1973)
Cooling Degree Days 18    
Growing Degree Days 33 (Base 50)    
Moisture  
Dew Point 74 °F    
Average Humidity 76    
Maximum Humidity 100    
Minimum Humidity 47    
Precipitation  
Precipitation 0.00 in - - ()
Sea Level Pressure  
Sea Level Pressure 30.06 in    
Wind  
Wind Speed 2 mph (NW)    
Max Wind Speed 8 mph    
Max Gust Speed -    
Visibility 8 miles    
Events      
Averages and records for this station are not official NWS values.
T = Trace of Precipitation, MM = Missing Value Source: NWS Daily Summary

Daily Weather History Graph

Daily Weather History Graph

Search for Another Location

Airport or City:

Trip Planner

Search our weather history database for the weather conditions in past years. The results will help you decide how hot, cold, wet, or windy it might be!

Date:

Astronomy

Aug. 22, 2014 Rise Set
Actual Time 6:25 AM CDT 7:28 PM CDT
Civil Twilight 6:00 AM CDT 7:53 PM CDT
Nautical Twilight 5:30 AM CDT 8:22 PM CDT
Astronomical Twilight 5:00 AM CDT 8:53 PM CDT
Moon 3:52 AM CDT (8/22) 5:33 PM CDT (8/22)
Length of Visible Light 13h 53m
Length of Day
13h 03m
Waning Crescent, 7% of the Moon is Illuminated
Aug 22
Waning Crescent
Aug 25
New
Sep 2
First Quarter
Sep 8
Full
Sep 15
Last Quarter

Hourly Weather History & Observations

Time (CDT) Temp. Heat Index Dew Point Humidity Pressure Visibility Wind Dir Wind Speed Gust Speed Precip Events Conditions
12:53 AM 75.0 °F - 75.0 °F 100% 30.08 in 7.0 mi Calm Calm - N/A   Clear
1:53 AM 75.0 °F - 73.9 °F 96% 30.07 in 5.0 mi Calm Calm - N/A   Clear
2:53 AM 75.0 °F - 73.9 °F 96% 30.07 in 10.0 mi Calm Calm - N/A   Partly Cloudy
4:53 AM 73.9 °F - 72.0 °F 93% 30.09 in 7.0 mi Calm Calm - N/A   Clear
5:53 AM 73.0 °F - 73.0 °F 100% 30.09 in 8.0 mi Calm Calm - N/A   Clear
7:53 AM 79.0 °F - 75.9 °F 90% 30.11 in 10.0 mi Calm Calm - N/A   Clear
8:53 AM 84.0 °F 91.9 °F 75.0 °F 74% 30.11 in 10.0 mi North 4.6 mph - N/A   Clear
9:53 AM 88.0 °F 97.5 °F 75.0 °F 65% 30.12 in 10.0 mi North 6.9 mph - N/A   Clear
10:53 AM 91.0 °F 99.3 °F 73.0 °F 55% 30.12 in 10.0 mi Variable 6.9 mph - N/A   Clear
11:53 AM 93.0 °F 101.9 °F 73.0 °F 52% 30.11 in 10.0 mi North 8.1 mph - N/A   Clear
12:53 PM 93.9 °F 100.8 °F 71.1 °F 47% 30.09 in 10.0 mi NE 5.8 mph - N/A   Clear
1:53 PM 93.9 °F 102.1 °F 72.0 °F 49% 30.07 in 10.0 mi Calm Calm - N/A   Partly Cloudy
2:53 PM 93.0 °F 100.1 °F 71.1 °F 49% 30.05 in 10.0 mi Calm Calm - N/A   Mostly Cloudy
3:53 PM 93.0 °F 106.7 °F 77.0 °F 59% 30.04 in 10.0 mi Variable 6.9 mph - N/A   Mostly Cloudy
4:53 PM 91.0 °F 101.6 °F 75.0 °F 59% 30.02 in 10.0 mi SSW 6.9 mph - N/A   Partly Cloudy
5:53 PM 89.1 °F 99.1 °F 75.0 °F 63% 30.02 in 10.0 mi SSW 6.9 mph - N/A   Clear
6:53 PM 87.1 °F 96.3 °F 75.0 °F 67% 30.02 in 10.0 mi SW 4.6 mph - N/A   Clear
7:53 PM 82.9 °F 90.8 °F 75.9 °F 79% 30.01 in 9.0 mi Calm Calm - N/A   Clear
8:53 PM 80.1 °F 85.4 °F 75.9 °F 87% 30.01 in 7.0 mi Calm Calm - N/A   Clear
9:53 PM 77.0 °F - 75.0 °F 94% 30.03 in 4.0 mi Calm Calm - N/A   Clear
10:53 PM 77.0 °F - 75.9 °F 96% 30.03 in 5.0 mi Calm Calm - N/A   Clear
11:53 PM 77.0 °F - 75.0 °F 94% 30.03 in 4.0 mi Calm Calm - N/A   Clear